Karlovy Vary, Czech Republic

8:57 PM CEST on October 19, 2017 (GMT +0200)
Karlovy Vary

Weather History for LKKV - May, 2013

Change the Weather History Date:

Wednesday, May 1, 2013

  Actual Average (EDQM) Record (EDQM)
Temperature  
Mean Temperature 46 °F -  
Max Temperature 50 °F 59 °F 84 °F (1998)
Min Temperature 42 °F 43 °F 37 °F (2006)
Degree Days  
Heating Degree Days 19    
Moisture  
Dew Point 43 °F    
Average Humidity 90    
Maximum Humidity 93    
Minimum Humidity 82    
Precipitation  
Precipitation 0.00 in - - ()
Sea Level Pressure  
Sea Level Pressure 30.16 in    
Wind  
Wind Speed 6 mph ()    
Max Wind Speed 12 mph    
Max Gust Speed -    
Visibility 3.9 miles    
Events Rain    
Averages and records for this station are not official NWS values.
T = Trace of Precipitation, MM = Missing Value Source: Averaged Metar Reports

Daily Weather History Graph

Daily Weather History Graph

Search for Another Location

Airport or City:

Trip Planner

Search our weather history database for the weather conditions in past years. The results will help you decide how hot, cold, wet, or windy it might be!

Date:

Astronomy

May. 01, 2013 Rise Set
Actual Time 5:44 AM CEST 8:27 PM CEST
Civil Twilight 5:07 AM CEST 9:04 PM CEST
Nautical Twilight 4:20 AM CEST 9:52 PM CEST
Astronomical Twilight 3:23 AM CEST 10:49 PM CEST
Moon 1:27 AM CEST (5/1) 11:00 AM CEST (5/1)
Length of Visible Light 15h 57m
Length of Day
14h 43m
Waning Gibbous, 62% of the Moon is Illuminated
May 1
Waning Gibbous
May 2
Last Quarter
May 10
New
May 18
First Quarter
May 25
Full

Hourly Weather History & Observations

Time (CEST) Temp. Windchill Dew Point Humidity Pressure Visibility Wind Dir Wind Speed Gust Speed Precip Events Conditions
12:00 AM 44.6 °F 42.2 °F 41.0 °F 87% 30.15 in 6.2 mi NE 4.6 mph - N/A   Overcast
1:00 AM 44.6 °F 42.2 °F 41.0 °F 87% 30.18 in 6.2 mi NE 4.6 mph - N/A   Mostly Cloudy
2:00 AM 42.8 °F 40.1 °F 41.0 °F 93% 30.18 in 5.6 mi NE 4.6 mph - N/A   Mostly Cloudy
2:24 AM 42.8 °F 40.1 °F 41.0 °F 93% 30.18 in 4.3 mi NE 4.6 mph - N/A   Light Drizzle
3:00 AM 42.8 °F 39.3 °F 41.0 °F 93% 30.18 in 4.3 mi ENE 5.8 mph - N/A   Mostly Cloudy
4:00 AM 42.8 °F 39.3 °F 41.0 °F 93% 30.18 in 5.6 mi NE 5.8 mph - N/A   Mostly Cloudy
5:00 AM 42.8 °F 38.6 °F 39.2 °F 87% 30.18 in 6.2 mi ENE 6.9 mph - N/A   Mostly Cloudy
6:00 AM 42.8 °F 38.6 °F 39.2 °F 87% 30.18 in 6.2 mi East 6.9 mph - N/A   Mostly Cloudy
7:00 AM 42.8 °F 38.6 °F 41.0 °F 93% 30.18 in 6.2 mi NE 6.9 mph - N/A   Overcast
8:00 AM 42.8 °F 38.0 °F 41.0 °F 93% 30.18 in 3.7 mi ENE 8.1 mph - N/A   Mostly Cloudy
8:30 AM 42.8 °F 39.3 °F 41.0 °F 93% 30.18 in 4.3 mi NE 5.8 mph - N/A   Mostly Cloudy
9:00 AM 42.8 °F 39.3 °F 41.0 °F 93% 30.21 in 3.7 mi NE 5.8 mph - N/A   Mostly Cloudy
9:30 AM 42.8 °F 40.1 °F 41.0 °F 93% 30.21 in 3.1 mi NE 4.6 mph - N/A   Mostly Cloudy
10:00 AM 44.6 °F 42.2 °F 42.8 °F 93% 30.21 in 1.9 mi NE 4.6 mph - N/A   Overcast
10:30 AM 44.6 °F 41.4 °F 42.8 °F 93% 30.21 in 2.2 mi NE 5.8 mph - N/A   Overcast
11:00 AM 44.6 °F 43.1 °F 42.8 °F 93% 30.21 in 5.0 mi ENE 3.5 mph - N/A   Overcast
11:30 AM 46.4 °F 44.3 °F 42.8 °F 87% 30.21 in 6.2 mi East 4.6 mph - N/A   Mostly Cloudy
12:00 PM 46.4 °F 42.4 °F 44.6 °F 93% 30.18 in 4.3 mi East 8.1 mph - N/A   Mostly Cloudy
12:30 PM 46.4 °F 42.9 °F 42.8 °F 87% 30.18 in 4.3 mi East 6.9 mph - N/A   Mostly Cloudy
1:00 PM 46.4 °F 42.4 °F 42.8 °F 87% 30.18 in 3.7 mi East 8.1 mph - N/A   Mostly Cloudy
1:30 PM 46.4 °F 42.9 °F 44.6 °F 93% 30.18 in 3.1 mi East 6.9 mph - N/A   Overcast
2:00 PM 46.4 °F 42.4 °F 44.6 °F 93% 30.18 in 2.5 mi ENE 8.1 mph - N/A   Overcast
2:30 PM 46.4 °F 42.4 °F 44.6 °F 93% 30.18 in 3.1 mi East 8.1 mph - N/A   Overcast
3:00 PM 46.4 °F 41.9 °F 44.6 °F 93% 30.18 in 2.2 mi East 9.2 mph - N/A   Overcast
3:30 PM 48.2 °F - 44.6 °F 87% 30.15 in 3.1 mi NE 8.1 mph - N/A   Overcast
4:00 PM 48.2 °F - 44.6 °F 87% 30.15 in 3.1 mi ENE 9.2 mph - N/A   Overcast
4:30 PM 48.2 °F - 44.6 °F 87% 30.12 in 3.1 mi East 10.4 mph - N/A   Overcast
5:00 PM 48.2 °F - 44.6 °F 87% 30.12 in 3.7 mi East 11.5 mph - N/A   Overcast
5:30 PM 50.0 °F - 44.6 °F 82% 30.12 in 3.1 mi ENE 9.2 mph - N/A   Mostly Cloudy
6:00 PM 50.0 °F - 44.6 °F 82% 30.12 in 3.1 mi East 9.2 mph - N/A   Mostly Cloudy
6:30 PM 50.0 °F - 44.6 °F 82% 30.12 in 2.5 mi East 8.1 mph - N/A   Overcast
7:00 PM 50.0 °F - 44.6 °F 82% 30.12 in 2.5 mi East 8.1 mph - N/A   Overcast
7:30 PM 50.0 °F - 44.6 °F 82% 30.12 in - East 9.2 mph - N/A   Overcast
8:00 PM 48.2 °F - 46.4 °F 93% 30.09 in 2.5 mi ENE 6.9 mph - N/A   Overcast
8:30 PM 48.2 °F - 46.4 °F 93% 30.12 in 2.5 mi ENE 5.8 mph - N/A   Overcast
9:00 PM 48.2 °F - 46.4 °F 93% 30.12 in 2.5 mi ENE 6.9 mph - N/A   Overcast
10:00 PM 48.2 °F - 46.4 °F 93% 30.09 in 3.1 mi ENE 6.9 mph - N/A   Overcast
11:00 PM 48.2 °F - 46.4 °F 93% 30.12 in 4.3 mi East 4.6 mph - N/A   Mostly Cloudy
11:16 PM 48.2 °F - 46.4 °F 93% 30.09 in 4.3 mi East 5.8 mph - N/A Rain Light Rain Showers